Flag for U.S.A. Weather past 2 weeks in Seattle, Washington, U.S.A.

Now
72 °F

Partly sunny.


Feels Like: 77 °F
Forecast: 56 / 70 °F
Wind: 8 mph from West

Location: Seattle Boeing Field

Current Time: Jul 25, 2014 at 2:40:42 PM

Latest Report: Jul 25, 2014 at 1:53 PM


Visibility: 10 mi

Pressure: 30.13 "Hg

Humidity: 48%

Dew point: 51 °F

Location of SeattleLocation

Historic Weather in Seattle — Graph

°F

Seattle temperature yesterday

Maximum temperature yesterday: 69 °F (at 1:53 PM)
Minimum temperature yesterday: 58 °F (at 12:53 AM)
Average temperature yesterday: 62 °F

Past Weeks' High & Low Weather Summary

 TemperatureHumidityPressure
High90 °F (Jul 12, 3:53 PM)87% (Jul 23, 7:53 AM)30.21 "Hg (Jul 23, 7:53 AM)
Low57 °F (Jul 18, 5:53 AM)27% (Jul 10, 4:53 PM)29.87 "Hg (Jul 10, 5:53 PM)
Average70 °F60%30.03 "Hg
* Reported Jul 10 1:53 PM — Jul 25 1:00 PM, Seattle, Weather by CustomWeather, © 2014

Note: Actual official high and low records may vary slightly from our data, if they occured in-between our weather recording intervals... More about our weather records

Advertising

Seattle weather history for previous 24 hours

 ConditionsComfort  
Time TempWeatherWind HumidityBarometerVisibility
1:00 PM
Jul 25
72 °FPartly sunny.7 mph47%30.14 "Hg10 mi
11:53 AM69 °FPartly sunny.7 mph57%30.14 "Hg10 mi
10:53 AM68 °FScattered clouds.7 mph57%30.14 "Hg10 mi
9:53 AM66 °FScattered clouds.3 mph59%30.15 "Hg10 mi
8:53 AM64 °FScattered clouds.7 mph65%30.16 "Hg10 mi
7:53 AM63 °FScattered clouds.3 mph68%30.16 "Hg10 mi
6:53 AM59 °FScattered clouds.No wind78%30.17 "Hg10 mi
5:53 AM57 °FPartly cloudy.No wind81%30.17 "Hg10 mi
4:53 AM60 °FMostly cloudy.No wind75%30.17 "Hg10 mi
3:53 AM60 °FPassing clouds.No wind72%30.18 "Hg10 mi
2:53 AM61 °FOvercast.No wind70%30.19 "Hg10 mi
1:53 AM62 °FOvercast.No wind65%30.19 "Hg10 mi
12:53 AM62 °FOvercast.No wind67%30.19 "Hg10 mi
11:53 PM
Jul 24
62 °FOvercast.No wind67%30.20 "Hg10 mi
11:00 PM63 °FOvercast.No wind68%30.21 "Hg10 mi
10:00 PM63 °FMostly cloudy.No wind68%30.21 "Hg10 mi
8:53 PM62 °FPartly sunny.5 mph70%30.20 "Hg10 mi
7:53 PM62 °FPartly sunny.7 mph70%30.20 "Hg10 mi
6:53 PM63 °FPartly sunny.7 mph70%30.20 "Hg10 mi
5:53 PM64 °FPartly sunny.7 mph70%30.20 "Hg10 mi
4:53 PM64 °FOvercast.8 mph75%30.20 "Hg10 mi
3:53 PM67 °FOvercast.No wind71%30.20 "Hg10 mi
2:53 PM66 °FCloudy.No wind70%30.19 "Hg10 mi
Weather by CustomWeather, © 2014

See weather overviewHow to use our weather pages